TimeEST,TemperatureF,Dew PointF,Humidity,Sea Level PressureIn,VisibilityMPH,Wind Direction,Wind SpeedMPH,Gust SpeedMPH,PrecipitationIn,Events,Conditions,WindDirDegrees,DateUTC
12:53 AM,24.1,14.0,65,30.15,10.0,Calm,Calm,-,N/A,,Overcast,0,2013-01-21 05:53:00
1:53 AM,24.1,14.0,65,30.14,10.0,Calm,Calm,-,N/A,,Overcast,0,2013-01-21 06:53:00
2:53 AM,24.1,12.9,62,30.12,10.0,Calm,Calm,-,N/A,,Overcast,0,2013-01-21 07:53:00
3:53 AM,24.1,12.9,62,30.11,10.0,SW,3.5,-,N/A,,Overcast,220,2013-01-21 08:53:00
4:53 AM,24.1,14.0,65,30.09,10.0,WSW,3.5,-,N/A,,Overcast,250,2013-01-21 09:53:00
5:53 AM,24.1,12.9,62,30.09,10.0,WSW,3.5,-,N/A,,Overcast,250,2013-01-21 10:53:00
6:53 AM,24.1,12.9,62,30.08,10.0,WSW,8.1,-,N/A,,Overcast,240,2013-01-21 11:53:00
7:53 AM,23.0,12.9,65,30.07,10.0,SW,5.8,-,N/A,,Overcast,230,2013-01-21 12:53:00
8:53 AM,24.1,12.0,60,30.06,10.0,WSW,6.9,-,N/A,,Overcast,250,2013-01-21 13:53:00
9:53 AM,24.1,12.9,62,30.06,10.0,WSW,10.4,-,N/A,,Overcast,240,2013-01-21 14:53:00
10:53 AM,25.0,14.0,63,30.04,10.0,WSW,11.5,-,N/A,,Overcast,250,2013-01-21 15:53:00
11:16 AM,24.8,15.8,69,30.00,9.0,West,12.7,20.7,0.00,,Overcast,260,2013-01-21 16:16:00
11:53 AM,25.0,14.0,63,30.03,10.0,West,13.8,20.7,0.00,,Overcast,260,2013-01-21 16:53:00
12:20 PM,24.8,17.6,74,29.98,2.0,West,11.5,20.7,0.00,Snow,Light Snow,280,2013-01-21 17:20:00
12:37 PM,24.8,15.8,69,29.98,5.0,West,15.0,-,0.00,Snow,Light Snow,270,2013-01-21 17:37:00
12:53 PM,25.0,12.9,60,30.01,10.0,West,16.1,23.0,0.00,,Mostly Cloudy,270,2013-01-21 17:53:00
1:53 PM,23.0,14.0,68,30.01,10.0,WNW,12.7,23.0,0.00,,Overcast,290,2013-01-21 18:53:00
2:08 PM,23.0,15.8,74,29.99,2.5,West,12.7,24.2,0.00,Snow,Light Snow,270,2013-01-21 19:08:00
2:17 PM,21.2,15.8,80,29.99,1.8,West,12.7,-,0.00,Snow,Light Snow,270,2013-01-21 19:17:00
2:25 PM,23.0,15.8,74,29.99,2.5,WNW,15.0,20.7,0.00,Snow,Light Snow,290,2013-01-21 19:25:00
2:32 PM,24.8,15.8,69,29.98,8.0,West,11.5,20.7,0.00,Snow,Light Snow,280,2013-01-21 19:32:00
2:41 PM,24.8,12.2,59,29.98,10.0,West,19.6,27.6,0.00,,Mostly Cloudy,280,2013-01-21 19:41:00
2:53 PM,24.1,10.0,55,30.02,10.0,West,18.4,29.9,0.00,,Mostly Cloudy,270,2013-01-21 19:53:00
3:53 PM,21.9,9.0,58,30.04,10.0,West,11.5,27.6,0.00,,Overcast,270,2013-01-21 20:53:00
4:44 PM,19.4,10.4,68,30.03,2.5,West,16.1,27.6,0.00,Snow,Light Snow,260,2013-01-21 21:44:00
4:49 PM,19.4,12.2,74,30.03,1.2,West,17.3,31.1,0.00,Snow,Light Snow,270,2013-01-21 21:49:00
4:53 PM,19.0,12.0,74,30.07,1.2,West,18.4,31.1,0.00,Snow,Light Snow,280,2013-01-21 21:53:00
4:58 PM,19.4,10.4,68,30.04,2.0,West,15.0,31.1,0.00,Snow,Light Snow,280,2013-01-21 21:58:00
5:06 PM,19.4,10.4,68,30.04,9.0,West,11.5,20.7,0.00,,Overcast,280,2013-01-21 22:06:00
5:13 PM,19.4,8.6,63,30.04,10.0,WNW,13.8,20.7,0.00,,Overcast,290,2013-01-21 22:13:00
5:53 PM,18.0,6.1,60,30.10,10.0,West,13.8,21.9,0.00,,Overcast,280,2013-01-21 22:53:00
6:53 PM,17.1,8.1,68,30.11,2.5,West,13.8,19.6,0.00,Snow,Light Snow,280,2013-01-21 23:53:00
6:57 PM,17.6,10.4,73,30.07,1.2,West,12.7,19.6,0.00,Snow,Light Snow,260,2013-01-21 23:57:00
7:17 PM,15.8,10.4,79,30.08,2.0,West,10.4,-,0.00,Snow,Light Snow,270,2013-01-22 00:17:00
7:24 PM,15.8,12.2,86,30.08,1.2,West,11.5,-,0.00,Snow,Light Snow,280,2013-01-22 00:24:00
7:44 PM,15.8,6.8,68,30.08,7.0,West,16.1,25.3,0.00,,Overcast,280,2013-01-22 00:44:00
7:53 PM,16.0,5.0,62,30.12,10.0,West,15.0,25.3,0.00,,Overcast,280,2013-01-22 00:53:00
8:53 PM,14.0,3.0,62,30.13,8.0,West,17.3,24.2,0.00,Snow,Light Snow,280,2013-01-22 01:53:00
9:53 PM,12.9,1.9,62,30.16,7.0,West,13.8,20.7,0.00,Snow,Light Snow,280,2013-01-22 02:53:00
10:53 PM,12.0,-0.9,56,30.17,10.0,West,6.9,20.7,0.00,,Scattered Clouds,280,2013-01-22 03:53:00
11:53 PM,10.9,-0.9,59,30.19,10.0,West,13.8,23.0,N/A,,Mostly Cloudy,280,2013-01-22 04:53:00